GSAT-7A

Last updated on Tue Sep 22 2026 00:03:14 GMT+0000 (Coordinated Universal Time)

1 43864U 18105A 26264.43022375 .00000023 00000+0 00000+0 0 9999 2 43864 0.0438 92.2841 0002286 89.4909 36.2389 1.00270180 28410
UTC large
Height (km)
Speed (km/s)
/
Latitude / Longitude
Inclination (degrees)
Orbital Period (minutes)
Azimuth
Elevation
Range (km)
Doppler Factor

Next 0 passes for location: London (51.5072 / 0.1276)

No passes found over London.
GSAT-7A